Home   Weather   Pointe-Noire   Past weeks

Flag for Congo Past Weather in Pointe-Noire, Congo — Yesterday and Last 2 Weeks

Now
84 °F

Partly sunny.


Feels Like: 92 °F
Forecast: 80 / 85 °F
Wind: 12 mph from South

Location: Pointe Airport-Noire

Current Time: Jan 22, 2017 at 11:28:11 am

Latest Report: Jan 22, 2017 at 10:00 am


Visibility: N/A

Pressure: 29.86 "Hg

Humidity: 74%

Dew Point: 75 °F

Location of Pointe-NoireLocation

Past Weather in Pointe-Noire — Graph

°F

Pointe-Noire Temperature Yesterday

Maximum temperature yesterday: 88 °F (at 12:00 pm)
Minimum temperature yesterday: 77 °F (at 6:00 am)
Average temperature yesterday: 83 °F

High & Low Weather Summary for the Past Weeks

 TemperatureHumidityPressure
High90 °F (Jan 20, 12:00 pm)100% (Jan 8, 6:00 am)30.24 "Hg (Jan 8, 6:00 am)
Low73 °F (Jan 20, 6:00 am)59% (Jan 20, 11:00 am)29.71 "Hg (Jan 14, 4:00 pm)
Average82 °F82%29.82 "Hg
* Reported Jan 7 9:00 am — Jan 22 9:00 am, Pointe-Noire, Weather by CustomWeather, © 2017

Note: Actual official high and low records may vary slightly from our data, if they occured in-between our weather recording intervals... More about our weather records

Advertising

Pointe-Noire Weather History for the Previous 24 Hours

Scroll right to see more
 ConditionsComfort  
Time TempWeatherWind HumidityBarometerVisibility
9:00 am
Sun, Jan 22
84 °FScattered clouds.9 mph79%29.86 "HgN/A
8:00 am81 °FBroken clouds.10 mph89%29.86 "HgN/A
7:00 am81 °FPartly sunny.6 mph89%29.83 "Hg5 mi
6:00 am81 °FPassing clouds.5 mph89%29.83 "Hg5 mi
5:00 am82 °FPartly cloudy.8 mph84%29.80 "Hg5 mi
4:00 am84 °FPartly cloudy.9 mph74%29.80 "Hg5 mi
3:00 am82 °FPassing clouds.9 mph84%29.83 "Hg5 mi
2:00 am82 °FPassing clouds.8 mph84%29.83 "Hg5 mi
1:00 am82 °FPassing clouds.7 mph84%29.86 "Hg5 mi
12:00 am82 °FPassing clouds.8 mph84%29.86 "Hg5 mi
11:00 pm
Sat, Jan 21
82 °FPassing clouds.8 mph84%29.86 "HgN/A
10:00 pm82 °FPassing clouds.7 mph89%29.83 "HgN/A
9:00 pm84 °FPassing clouds.6 mph84%29.83 "HgN/A
8:00 pm84 °FPassing clouds.7 mph84%29.80 "HgN/A
7:00 pm84 °FPassing clouds.14 mph84%29.77 "HgN/A
6:00 pm84 °FScattered clouds.12 mph84%29.77 "HgN/A
5:00 pm86 °FScattered clouds.9 mph79%29.77 "HgN/A
4:00 pm86 °FScattered clouds.9 mph79%29.77 "HgN/A
3:00 pm86 °FScattered clouds.14 mph75%29.77 "HgN/A
2:00 pm88 °FScattered clouds.14 mph66%29.80 "HgN/A
1:00 pm88 °FPassing clouds.12 mph66%29.83 "HgN/A
12:00 pm88 °FPassing clouds.12 mph66%29.86 "HgN/A
11:00 am86 °FScattered clouds.9 mph75%29.89 "HgN/A
Weather by CustomWeather, © 2017

See weather overviewHow to use our weather pages